Location: Castelfranca di Sopra
(43.6167°N, 11.5500°E)
Time: 13:39:48
(UTC+00:00)

Daily predictions for brighter satellites

Satellite Brightness Start Highest point End
(mag) Time Altitude Azimuth Time Altitude Azimuth Time Altitude Azimuth
Exosat Rocket 3.7 15:57:45 10° S 16:03:02 58° ESE 16:07:57 10° NNE
Helios 1A Rocket 3.2 16:03:47 10° S 16:07:54 75° WSW 16:12:00 10° NNW
FALCON 9 DEB 3.9 16:06:15 10° SSW 16:09:34 41° SE 16:12:53 10° ENE
Cosmos 1980 3.8 16:05:18 10° S 16:10:50 60° ESE 16:16:23 10° NNE
ATLAS 2AS CENTAUR R/B 4.1 16:03:54 10° WSW 16:11:13 37° NW 16:18:31 10° NNE
Meteor 1-11 Rocket 3.9 16:05:37 10° N 16:11:34 63° ENE 16:17:26 10° SSE
Meteor 1-27 Rocket 4.0 16:06:29 10° S 16:12:05 55° E 16:17:46 10° NNE
COSMO-SKYMED 1 4.3 16:11:59 10° NE 16:14:26 15° E 16:16:52 10° SE
SMAP 3.2 16:12:15 10° SE 16:16:45 50° ENE 16:21:15 10° N
Nadezhda 4 Rocket 4.1 16:11:45 10° S 16:17:56 59° E 16:24:08 10° NNE
Okean 1-7 4.4 16:15:57 10° SE 16:19:05 20° E 16:22:14 10° NE
YAOGAN 1 4.3 16:18:22 10° E 16:20:08 12° ENE 16:21:52 10° NE
H-2A R/B 2.9 16:18:17 10° SSE 16:21:49 45° ENE 16:25:21 10° N
Cosmos 1441 Rocket 4.4 16:20:33 10° NNE 16:23:28 20° ENE 16:26:19 10° ESE
AQUARIUS 4.3 16:21:08 10° SSE 16:25:32 55° ENE 16:29:56 10° N
ALOS 4.1 16:22:45 10° SSW 16:27:01 36° W 16:31:20 10° NNW
RESURS DK-1 3.8 16:26:29 10° WSW 16:30:15 34° WNW 16:34:03 10° N
Cosmos 1733 Rocket 3.3 16:26:46 10° NNW 16:31:10 77° W 16:35:33 10° S
COSMOS 2428 3.9 16:27:41 10° SW 16:33:02 41° WNW 16:38:26 10° NNE
STARLINK-52 3.4 16:32:17 10° SW 16:35:43 56° SE 16:38:18 16° ENE
Cosmos 1900 4.2 16:31:43 10° NNW 16:36:38 81° ENE 16:41:31 10° SE
Genesis I 3.8 16:36:02 10° NNW 16:39:38 35° NE 16:43:10 10° ESE
Cosmos 2026 Rocket 4.4 16:34:23 10° SSE 16:39:54 38° E 16:45:26 10° NNE
USA 215 3.7 16:33:36 10° NE 16:39:59 58° NNW 16:46:21 10° WSW
Cosmos 1263 4.3 16:37:44 10° S 16:40:40 47° E 16:43:36 10° NNE
Feng Yun 1-1 Rocket 4.2 16:35:48 10° SSE 16:41:11 87° ENE 16:46:37 10° NNW
ISS -2.4 16:38:34 10° WNW 16:41:46 42° SW 16:44:57 10° SSE
Cosmos 292 Rocket 3.8 16:38:43 10° NNW 16:43:33 59° ENE 16:48:20 10° SSE
STARLINK-29 3.2 16:40:21 10° SW 16:43:51 76° SE 16:46:12 20° ENE
Cosmos 1666 2.7 16:42:29 10° N 16:46:11 55° E 16:49:50 10° SSE
Cosmos 1536 2.8 16:44:15 10° N 16:48:18 87° WSW 16:52:16 10° S
Cosmos 921 Rocket 3.5 16:44:59 10° N 16:48:56 35° ENE 16:52:56 10° SE
Cosmos 614 Rocket 4.4 16:45:03 10° S 16:49:44 38° ESE 16:53:30 15° NE
NOSS 0 Rocket 4.4 16:44:57 10° SW 16:51:05 61° WNW 16:57:17 10° NNE
STARLINK-60 3.4 16:48:28 10° WSW 16:51:48 60° NNW 16:53:48 22° NE
Cosmos 1174 4.5 16:48:07 10° SSW 16:53:09 49° ESE 16:55:51 20° NE
NOAA 12 4.0 16:49:29 10° SSE 16:54:46 74° ENE 17:00:04 10° N
Cosmos 2251 Rocket 4.5 16:52:47 10° SW 16:57:54 47° WNW 17:03:01 10° N
Lacrosse 5 rocket 3.0 16:54:32 10° W 16:58:09 26° NNW 17:00:53 14° NNE
BREEZE-M R/B 3.7 16:53:44 10° WNW 16:58:47 36° N 17:00:16 24° NE
Cosmos 2278 Rocket 3.2 16:53:39 10° NW 16:59:07 50° WSW 17:04:32 10° S
COBE Rocket 4.1 16:56:13 10° N 17:00:50 68° WNW 17:05:30 10° SSW
SKYMED 2 3.8 16:59:21 14° NNE 17:02:54 46° E 17:07:04 10° S
Cosmos 1782 Rocket 3.6 16:58:59 10° N 17:03:14 50° ENE 17:07:26 10° SSE
Envisat 2.9 17:00:13 10° SSE 17:05:17 78° ENE 17:10:23 10° N
FengYun 1-2 T 4.2 17:00:03 10° SSE 17:05:24 58° ENE 17:10:48 10° N
SL-4 R/B 3.3 17:02:39 10° WNW 17:05:52 25° N 17:07:13 21° NNE
Aureole 1 Rocket 2.3 17:03:51 10° SSW 17:06:47 72° WNW 17:08:48 20° NNE
Cosmos 2221 Rocket 4.4 17:04:02 10° SSE 17:07:50 28° E 17:08:09 28° E
Okean 1 3.6 17:04:18 10° SSE 17:08:03 42° E 17:09:47 26° NE
Cosmos 1140 Rocket 3.9 17:04:29 10° S 17:09:10 38° ESE 17:11:21 26° NE
Sich 1 Rocket 3.8 17:05:02 10° N 17:09:16 44° ENE 17:13:27 10° SSE
Cosmos 1627 Rocket 4.4 17:04:53 10° S 17:10:56 73° E 17:17:04 10° NNE
CZ-4 R/B 1.5 17:07:17 10° SE 17:10:59 44° ENE 17:14:41 10° N
Cosmos 2369 Rocket 3.3 17:06:53 10° N 17:11:13 23° NE 17:11:13 23° NE
Cosmos 1703 Rocket 3.5 17:08:38 10° S 17:13:06 89° ESE 17:17:37 10° N
SL-16 R/B 2.2 17:07:58 10° SSW 17:13:36 68° ESE 17:17:46 19° NNE
USA 267 3.6 17:07:07 10° SE 17:13:38 69° SW 17:20:10 10° NW
Cosmos 1743 2.8 17:11:04 10° N 17:14:50 50° ENE 17:18:36 10° SSE
Cosmos 407 Rocket 3.5 17:09:51 10° S 17:14:57 63° ESE 17:18:34 20° NNE
Cosmos 2195 Rocket 4.5 17:10:44 10° S 17:16:56 87° E 17:23:17 10° N
Cosmos 1655 Rocket 4.4 17:12:35 10° SSE 17:18:18 38° E 17:22:33 17° NNE
YAOGAN 6 2.4 17:15:23 10° SSE 17:18:54 74° ENE 17:22:29 10° N
Cosmos 2237 Rocket 3.3 17:18:14 10° SW 17:23:36 41° WNW 17:28:59 10° NNE
Cosmos 2333 Rocket 4.5 17:21:10 10° W 17:25:09 19° NW 17:29:09 10° N
Cosmos 1092 Rocket 4.4 17:20:28 10° SSW 17:26:44 67° W 17:32:58 10° N
BREEZE-M DEB (TANK) 1.8 17:23:12 10° WNW 17:27:12 70° SSW 17:27:32 59° SSE
Shenzhou-11 Module 3.2 17:27:17 10° W 17:29:46 31° SSW 17:29:54 31° SSW
Meteor 1-19 Rocket 4.2 17:29:06 10° S 17:34:29 56° E 17:36:58 30° NNE
Meteor 2-4 Rocket 4.2 17:29:09 10° SSE 17:34:31 37° E 17:34:31 37° E
Okean-O 3.9 17:34:39 10° S 17:38:51 41° W 17:43:03 10° NNW
Cosmos 1867 3.5 17:33:59 10° NNW 17:39:25 61° NE 17:41:04 42° ESE
BREEZE-M DEB (TANK) 2.1 17:37:52 10° WNW 17:41:21 65° NW 17:41:21 65° NW
USA 116 4.3 17:38:51 21° NNE 17:42:26 77° ESE 17:47:26 10° S
Cosmos 1943 Rocket 2.5 17:40:17 10° NNW 17:45:19 44° NE 17:45:19 44° NE
FALCON 9 DEB 4.5 17:43:29 10° W 17:46:30 33° NNW 17:46:30 33° NNW
COSMO-SKYMED 1 3.2 17:47:53 18° N 17:50:55 53° WNW 17:55:08 10° SSW
Meteor 2-13 Rocket 4.3 17:47:12 10° S 17:53:11 68° E 17:56:08 31° NNE
CSL-04 Rocket 3.5 17:47:58 10° SSE 17:53:15 86° WSW 17:58:35 10° NNW
YAOGAN 1 2.7 17:51:18 10° S 17:55:37 73° WSW 17:59:57 10° NNW
Okean 1-7 4.5 17:52:21 10° SW 17:56:22 36° WNW 18:00:20 11° N
CZ-4C R/B 3.6 17:52:59 10° S 17:54:43 20° SSE 17:54:43 20° SSE
S3M 3.8 17:54:41 10° N 18:00:55 78° E 18:07:03 10° SSE
Cosmos 2266 Rocket 4.0 18:02:24 10° S 18:08:30 63° ESE 18:08:30 63° ESE
DMSP B5D1-3 4.4 18:09:33 88° NE 18:09:36 89° E 18:14:43 10° SSW
Cosmos 676 Rocket 3.9 18:06:20 10° SSW 18:11:30 80° WNW 18:11:47 76° NNW
Cosmos 1553 Rocket 4.3 18:07:01 10° NNW 18:13:20 66° W 18:19:40 10° S
Cosmos 1954 Rocket 4.1 18:14:39 10° SSW 18:19:42 71° WNW 18:19:42 71° WNW
USA 215 4.4 18:20:48 28° N 18:22:12 30° NNW 18:27:44 10° WNW
Lacrosse 5 3.6 18:29:41 10° SSW 18:31:51 25° SSW 18:31:51 25° SSW
CZ-4 R/B 4.4 18:44:09 10° SW 18:46:15 14° W 18:48:20 10° WNW
Cosmos 2369 Rocket 3.6 18:50:12 10° NNW 18:53:04 31° NW 18:53:04 31° NW
SL-16 R/B 4.2 18:53:55 10° W 18:58:15 22° NW 18:59:41 20° NNW
NOSS 3-1 (C) 4.3 18:58:02 10° NW 19:03:58 61° NNW 19:03:58 61° NNW
Cosmos 1943 Rocket 4.3 19:24:30 10° NW 19:26:54 21° WNW 19:26:54 21° WNW
Cosmos 2344 4.4 19:21:32 10° NW 19:31:31 86° WSW 19:31:31 86° WSW
